Date,TemperatureHighF,TemperatureAvgF,TemperatureLowF,DewpointHighF,DewpointAvgF,DewpointLowF,HumidityHigh,HumidityAvg,HumidityLow,PressureMaxIn,PressureMinIn,WindSpeedMaxMPH,WindSpeedAvgMPH,GustSpeedMaxMPH,PrecipitationSumIn
2013-1-1,32,23,18,31,19,13,96,83,71,30.28,30.10,5,1,10,0.00
2013-1-2,32,21,13,19,15,10,90,78,51,30.29,30.20,3,0,4,0.00
2013-1-3,40,28,17,28,22,15,93,80,59,30.41,30.23,3,0,6,0.05
2013-1-4,41,29,22,26,22,20,95,77,51,30.44,30.31,9,1,11,0.00
2013-1-5,45,34,21,32,26,19,92,74,53,30.32,30.10,5,0,8,0.01
2013-1-6,41,33,22,33,25,19,88,73,53,30.39,30.09,8,1,13,0.00
2013-1-7,48,32,18,30,24,16,92,75,44,30.40,30.15,4,1,7,0.00
2013-1-8,55,41,25,36,28,21,90,64,36,30.20,30.07,7,1,10,0.00
2013-1-9,57,47,36,44,37,32,97,71,46,30.45,30.16,5,0,6,0.00
2013-1-10,55,46,41,55,42,32,98,86,60,30.43,29.76,8,1,11,0.58
2013-1-11,64,55,49,54,49,47,98,80,58,29.85,29.74,7,2,14,0.01
2013-1-12,56,46,31,50,41,29,97,83,57,29.93,29.77,7,1,11,0.76
2013-1-13,31,25,18,29,21,14,93,84,76,30.38,29.90,10,2,14,0.00
2013-1-14,28,20,15,16,14,11,90,77,56,30.53,30.38,3,0,5,0.00
2013-1-15,29,23,15,21,17,13,91,79,63,30.44,30.14,5,0,6,0.00
2013-1-16,43,29,18,25,20,15,92,73,43,30.17,30.03,3,0,8,0.00
2013-1-17,41,33,24,29,24,20,86,71,44,30.49,30.13,5,1,14,0.00
2013-1-18,56,38,20,29,24,17,92,62,31,30.50,30.12,6,2,13,0.00
2013-1-19,66,50,37,36,32,27,69,51,32,30.13,29.89,6,2,14,0.00
2013-1-20,47,33,25,32,17,11,76,53,40,30.33,30.11,7,1,11,0.00
2013-1-21,27,21,15,13,5,-3,71,52,34,30.41,30.29,8,2,16,0.00
2013-1-22,19,16,13,11,5,-1,84,62,47,30.50,30.38,3,0,6,0.00
2013-1-23,44,27,14,24,17,11,87,68,44,30.39,30.15,4,1,11,0.00
2013-1-24,28,22,15,15,9,3,71,57,47,30.60,30.25,8,3,14,0.00
2013-1-25,44,33,26,23,18,12,67,55,43,30.26,30.12,6,1,9,0.00
2013-1-26,40,32,25,23,18,14,79,59,36,30.39,30.23,3,0,7,0.00
2013-1-27,54,37,29,52,33,19,97,87,65,30.30,29.95,8,2,13,0.14
2013-1-28,73,62,55,62,58,53,94,85,68,29.96,29.81,5,2,10,0.00
2013-1-29,68,62,52,60,58,52,97,87,73,29.81,29.39,8,2,17,1.45
2013-1-30,53,39,28,52,35,18,97,85,67,29.91,29.33,16,3,18,0.14
2013-1-31,34,25,12,27,16,2,90,69,60,30.41,29.92,8,2,18,0.00
2013-2-1,29,19,8,12,6,0,76,57,40,30.52,30.25,5,1,11,0.00
2013-2-2,43,34,29,29,21,11,93,61,47,30.24,30.05,8,2,15,0.00
2013-2-3,35,30,25,30,23,15,96,75,46,30.20,30.00,7,1,18,0.06
2013-2-4,60,39,28,37,29,22,82,67,42,30.00,29.77,6,1,14,0.08
2013-2-5,57,39,28,36,30,25,90,72,42,30.13,29.88,7,1,12,0.00
2013-2-6,52,39,25,33,30,23,94,72,47,30.23,30.04,5,1,8,0.00
2013-2-7,53,43,35,47,37,30,94,81,63,30.04,29.84,8,1,12,0.08
2013-2-8,39,35,31,37,30,26,90,83,77,30.36,30.04,7,2,14,0.00
2013-2-9,43,35,30,35,28,25,92,78,64,30.37,30.02,6,2,11,0.10
2013-2-10,57,47,38,52,41,31,96,82,43,30.01,29.57,9,3,20,0.40
2013-2-11,50,41,30,31,28,25,83,60,42,30.14,29.77,8,2,15,0.00
2013-2-12,45,36,25,31,28,23,92,74,53,30.16,29.93,3,0,5,0.00
2013-2-13,55,43,35,33,31,29,83,64,38,29.94,29.79,7,1,10,0.00
2013-2-14,56,45,37,36,33,30,79,63,42,30.05,29.80,7,1,12,0.00
2013-2-15,42,35,28,30,20,13,78,57,36,30.26,30.05,8,2,12,0.00
2013-2-16,37,28,21,17,14,10,77,58,32,30.28,30.17,6,1,10,0.00
2013-2-17,48,36,21,32,23,15,83,62,38,30.18,29.90,9,2,13,0.00
2013-2-18,56,46,33,48,39,24,91,78,68,29.90,29.53,16,4,21,0.07
2013-2-19,36,30,24,25,16,10,75,58,37,30.30,29.91,11,3,16,0.00
2013-2-20,27,23,18,14,12,9,73,63,55,30.42,30.30,6,1,7,0.00
2013-2-21,31,26,21,30,22,14,95,83,70,30.33,29.83,10,2,18,0.00
2013-2-22,34,31,21,32,27,18,96,86,69,30.08,29.80,6,1,11,0.08
2013-2-23,37,26,15,23,19,13,94,77,53,30.07,29.99,4,1,8,0.29
2013-2-24,44,31,16,28,23,14,93,74,51,30.13,30.03,5,1,8,0.30
2013-2-25,46,37,27,33,29,25,92,76,57,30.06,29.60,8,1,13,0.27
2013-2-26,40,36,33,39,34,31,96,94,90,29.67,29.33,7,1,14,0.70
2013-2-27,35,33,31,32,30,27,94,91,85,29.90,29.67,6,1,9,0.05
2013-2-28,34,32,31,30,29,28,92,86,80,30.11,29.89,9,1,10,0.00
2013-3-1,32,30,28,30,28,25,93,89,84,30.20,30.07,4,1,9,0.09
2013-3-2,33,28,22,25,21,17,87,74,58,30.26,30.19,6,2,12,0.02
2013-3-3,38,29,16,26,20,14,93,71,51,30.22,30.03,4,1,7,0.00
2013-3-4,52,43,35,42,33,26,86,68,53,30.03,29.73,9,3,13,0.00
2013-3-5,43,35,31,36,29,23,95,80,63,30.12,29.77,12,2,23,0.14
2013-3-6,38,32,25,25,23,21,85,70,58,30.36,30.13,13,2,19,0.00
2013-3-7,46,34,21,31,26,19,94,74,49,30.42,30.30,5,1,9,0.00
2013-3-8,52,41,29,34,31,26,92,68,45,30.41,30.18,6,1,11,0.00
2013-3-9,69,52,40,44,37,31,91,60,31,30.18,29.77,10,3,15,0.25
2013-3-10,60,52,45,52,48,41,97,88,50,29.77,29.61,4,1,8,1.40
2013-3-11,45,36,33,43,31,26,94,84,72,29.98,29.71,9,2,12,0.01
2013-3-12,50,37,28,30,26,22,86,65,38,30.21,29.98,6,2,17,0.00
2013-3-13,41,34,27,24,20,17,77,59,40,30.41,30.21,12,2,16,0.00
2013-3-14,52,38,26,34,27,21,89,68,43,30.40,30.07,8,1,10,0.00
2013-3-15,70,50,30,48,39,28,95,71,39,30.08,29.64,4,0,7,0.00
2013-3-16,62,47,39,48,40,36,92,78,54,30.03,29.62,6,1,13,0.02
2013-3-17,39,36,33,36,33,29,95,90,82,30.08,29.77,7,1,13,1.28
2013-3-18,50,41,36,39,35,23,97,80,50,30.01,29.68,8,2,13,0.03
2013-3-19,47,37,27,23,20,14,84,52,28,30.21,30.02,7,1,13,0.00
2013-3-20,36,31,25,30,19,12,87,62,41,30.27,30.11,8,2,16,0.00
2013-3-21,38,29,20,20,16,12,78,59,39,30.12,29.98,4,1,7,0.00
2013-3-22,41,36,32,27,24,20,68,61,51,30.04,29.97,4,0,8,0.00
2013-3-23,53,44,37,37,28,21,81,54,41,30.03,29.80,8,1,11,0.00
2013-3-24,42,33,30,37,31,30,96,94,83,29.84,29.55,8,1,13,0.11
2013-3-25,36,32,28,31,28,25,96,87,73,30.19,29.83,8,1,18,0.39
2013-3-26,40,34,27,27,25,23,86,71,53,30.35,30.20,6,1,12,0.33
2013-3-27,47,35,21,31,25,19,94,71,44,30.40,30.29,3,0,6,0.04
2013-3-28,56,46,37,39,33,27,74,62,50,30.34,30.20,6,1,10,0.00
2013-3-29,62,51,40,46,42,38,93,73,52,30.23,30.14,6,1,8,0.00
2013-3-30,52,45,37,47,42,35,97,91,73,30.18,29.90,4,1,9,0.09
2013-3-31,68,56,47,51,44,35,97,69,31,29.90,29.82,5,1,10,0.00
2013-4-1,52,43,34,35,26,20,68,52,36,30.22,29.91,10,2,11,0.00
2013-4-2,48,38,27,25,21,13,81,54,26,30.35,30.22,6,1,8,0.00
2013-4-3,52,42,29,27,24,20,78,52,33,30.39,30.23,8,1,13,0.00
2013-4-4,60,46,30,31,26,22,83,49,25,30.23,30.01,4,1,8,0.00
2013-4-5,66,51,34,39,34,29,85,55,29,30.16,30.01,5,1,7,0.00
2013-4-6,74,64,49,45,39,35,67,43,26,30.00,29.68,10,3,20,0.00
2013-4-7,77,66,52,60,51,45,88,61,37,29.88,29.70,6,1,14,0.03
2013-4-8,78,69,61,61,57,54,85,67,51,29.83,29.68,8,3,13,0.00
2013-4-9,78,70,63,63,60,57,81,70,59,29.84,29.75,7,2,13,0.00
2013-4-10,83,68,60,67,63,58,97,83,55,29.79,29.53,7,1,14,0.91
2013-4-11,60,46,41,59,41,31,97,82,69,29.73,29.61,5,2,12,0.05
2013-4-12,44,41,36,34,32,30,79,69,61,30.00,29.71,7,1,11,0.00
2013-4-13,62,49,33,43,36,31,92,63,40,30.06,29.87,5,1,9,0.00
2013-4-14,79,62,45,56,47,41,85,61,30,29.87,29.56,13,3,20,0.00
2013-4-15,70,62,53,62,56,50,96,82,68,29.87,29.69,5,1,11,0.15
2013-4-16,53,47,44,50,45,43,96,93,87,30.12,29.86,5,1,10,0.90
2013-4-17,84,60,48,69,55,46,97,85,53,30.09,29.68,10,2,15,0.00
2013-4-19,44,40,37,30,30,29,76,66,57,30.09,30.06,0,0,0,0.00
2013-4-20,56,44,30,33,30,27,94,61,33,30.37,30.09,8,1,8,0.00
2013-4-21,63,52,42,42,37,32,74,57,46,30.44,30.27,8,2,10,0.00
2013-4-22,71,58,38,47,41,35,91,58,33,30.29,29.99,9,1,14,0.00
2013-4-23,60,51,39,56,48,38,96,88,63,30.05,29.89,6,1,10,0.73
2013-4-24,54,44,37,38,34,27,95,72,38,30.29,30.04,6,1,12,0.06
2013-4-25,64,50,35,41,34,29,91,60,30,30.39,30.28,5,0,10,0.00
2013-4-26,58,52,45,49,44,38,87,74,62,30.41,30.29,6,1,9,0.00
2013-4-27,53,51,48,53,50,46,97,95,86,30.31,29.96,5,0,7,0.25
2013-4-28,57,54,48,52,51,46,98,90,80,30.00,29.93,5,0,9,0.06
2013-4-29,79,62,44,61,54,43,98,77,49,29.97,29.79,8,1,11,0.00
2013-4-30,87,73,56,62,57,49,96,62,27,29.95,29.81,8,1,11,0.00
2013-5-1,82,70,54,61,57,52,96,66,41,30.08,29.95,4,1,9,0.00
2013-5-2,69,59,44,62,54,42,96,84,62,30.18,30.07,3,0,9,0.34
2013-5-3,44,41,39,42,40,38,97,96,95,30.12,29.86,2,0,8,1.79
2013-5-4,51,44,39,44,40,38,97,85,62,30.04,29.88,2,0,7,0.04
2013-5-5,60,52,43,57,50,42,98,94,87,30.03,29.91,2,0,5,0.06
2013-5-6,67,60,52,57,54,51,97,82,65,30.00,29.93,3,0,8,0.00
2013-5-7,59,57,56,56,55,55,96,93,90,30.02,29.99,0,0,0,0.01
2013-5-9,76,69,63,65,62,59,93,78,57,29.95,29.85,4,0,9,0.02
2013-5-10,65,61,56,61,57,52,96,87,77,30.02,29.85,3,0,10,0.01
2013-5-11,69,59,49,55,46,33,94,65,33,30.19,30.01,4,0,15,0.00
2013-5-12,61,51,40,37,33,28,79,53,29,30.26,30.17,4,0,10,0.00
2013-5-13,72,56,37,48,40,34,95,59,31,30.27,30.05,3,0,9,0.00
2013-5-14,91,73,52,60,53,48,91,54,28,30.05,29.81,7,1,9,0.00
2013-5-15,89,78,63,66,60,52,76,55,40,29.95,29.81,2,0,10,0.00
2013-5-16,80,73,64,68,63,59,88,73,51,29.95,29.85,5,0,8,0.00
2013-5-17,76,69,63,67,63,59,92,82,68,29.97,29.91,2,0,6,0.00
2013-5-18,81,71,60,67,65,59,98,80,62,30.02,29.87,3,0,6,0.00
2013-5-19,89,79,69,75,69,64,90,73,52,29.91,29.70,5,1,10,0.00
2013-5-20,79,72,62,70,66,61,97,84,69,29.90,29.69,9,1,17,0.36
2013-5-21,78,69,62,68,64,61,98,85,65,29.81,29.71,3,0,9,0.55
2013-5-22,75,68,62,62,59,55,94,76,55,29.89,29.68,6,0,11,0.01
2013-5-23,65,61,55,61,55,51,93,82,71,30.24,29.89,3,0,8,0.01
2013-5-24,68,58,46,52,43,36,95,63,34,30.43,30.24,2,0,6,0.00
2013-5-25,68,58,46,59,52,44,95,80,58,30.36,30.14,3,0,7,0.02
2013-5-26,81,70,57,73,62,53,92,76,63,30.20,30.00,3,0,6,0.03
2013-5-27,82,71,65,71,65,61,96,80,67,30.02,29.77,4,0,15,0.11
2013-5-28,83,74,65,72,67,64,97,81,63,29.89,29.81,4,0,9,0.06
2013-5-29,85,77,65,70,66,62,94,70,50,29.96,29.81,4,1,10,0.04
2013-5-30,81,75,65,73,68,64,96,80,67,29.92,29.80,5,1,10,0.31
2013-5-31,79,70,64,73,67,63,97,90,78,29.89,29.73,5,0,11,1.68
2013-6-1,77,68,62,68,64,58,98,88,67,29.90,29.73,4,0,8,0.24
2013-6-2,66,63,60,59,57,54,87,81,76,30.04,29.90,3,0,9,0.00
2013-6-3,70,63,56,55,52,49,88,70,52,30.11,30.00,4,0,5,0.00
2013-6-4,74,64,50,59,55,49,97,76,53,30.11,30.01,2,0,5,0.00
2013-6-5,78,67,57,66,61,56,97,82,52,30.03,29.86,0,0,3,0.13
2013-6-6,77,68,61,66,61,54,98,79,54,29.89,29.84,2,0,8,0.00
2013-6-7,74,65,57,62,58,55,94,79,58,29.93,29.88,2,0,5,0.00
2013-6-8,78,67,54,61,57,53,97,73,47,29.99,29.91,2,0,6,0.00
2013-6-9,77,65,59,66,62,57,96,88,65,29.96,29.81,3,0,15,0.26
2013-6-10,78,69,62,65,63,61,98,82,61,29.93,29.79,2,0,9,0.04
2013-6-11,89,75,59,75,68,57,98,80,56,29.97,29.86,2,0,5,0.00
2013-6-12,93,83,69,76,72,67,97,73,56,29.96,29.74,3,1,10,0.00
2013-6-13,84,75,65,72,65,61,87,73,58,30.00,29.75,4,0,11,0.00
2013-6-14,81,71,59,64,61,58,97,72,51,30.10,29.95,2,0,5,0.00
2013-6-15,86,74,65,72,67,62,97,79,60,30.11,29.94,2,0,14,0.43
2013-6-16,83,74,68,75,71,67,98,90,70,30.04,29.91,1,0,10,0.27
2013-6-17,84,72,65,76,69,65,99,92,65,29.95,29.86,2,0,6,0.76
2013-6-18,86,74,61,74,65,60,99,79,52,29.98,29.91,2,0,5,0.00
2013-6-19,83,73,64,70,65,62,96,78,50,30.07,29.98,1,0,3,0.00
2013-6-20,87,77,64,74,68,63,98,76,56,30.12,30.04,3,0,6,0.00
2013-6-21,89,80,69,76,72,67,97,77,62,30.11,30.00,3,0,6,0.00
2013-6-22,88,75,69,77,70,65,94,84,68,30.08,30.00,1,0,7,0.17
2013-6-23,88,74,67,76,69,65,97,83,63,30.07,29.95,2,0,11,1.16
2013-6-24,89,78,67,78,71,66,98,80,58,30.08,29.93,1,0,3,0.00
2013-6-25,90,83,74,76,73,70,89,74,61,29.97,29.79,5,0,7,0.00
2013-6-26,90,78,74,78,74,72,98,87,66,29.86,29.73,3,0,12,0.35
2013-6-27,91,80,69,75,72,68,99,79,48,29.89,29.77,4,0,8,0.00
2013-6-28,87,79,72,73,67,58,96,69,40,29.86,29.71,6,0,11,0.01
2013-6-29,80,72,65,68,63,60,95,74,59,29.75,29.66,4,0,12,0.27
2013-6-30,74,68,64,66,64,61,95,86,70,29.93,29.75,2,0,9,0.03
2013-7-1,77,70,64,64,58,54,94,66,50,29.98,29.91,2,0,10,0.00
2013-7-2,70,64,60,62,59,55,96,86,59,30.06,29.95,1,0,4,0.32
2013-7-3,80,71,61,65,62,60,97,77,55,30.11,30.02,2,0,3,0.00
2013-7-4,82,72,60,66,62,59,97,74,50,30.10,30.01,1,0,6,0.00
2013-7-5,82,73,62,71,66,61,98,79,59,30.09,30.00,1,0,5,0.00
2013-7-6,86,73,66,71,67,63,97,82,52,30.05,29.96,2,0,9,0.16
2013-7-7,89,77,64,75,69,64,98,78,54,30.05,29.98,2,0,6,0.00
2013-7-8,90,80,72,76,72,68,92,78,57,30.09,30.01,1,0,5,0.00
2013-7-9,91,84,75,78,74,71,89,75,61,30.05,29.92,3,0,3,0.00
2013-7-10,84,77,71,77,73,70,97,87,72,29.99,29.89,3,0,5,0.29
2013-7-11,82,74,66,70,64,60,92,72,48,30.06,29.98,1,0,4,0.00
2013-7-12,83,71,60,64,60,57,97,71,41,30.13,30.04,2,0,6,0.00
2013-7-13,84,72,58,67,62,57,96,71,48,30.10,30.02,2,0,6,0.00
2013-7-14,86,76,64,72,67,62,96,76,57,30.14,30.05,2,0,6,0.00
2013-7-15,89,79,70,76,73,69,97,81,58,30.23,30.14,2,0,4,0.00
2013-7-16,90,81,72,75,73,71,97,77,56,30.30,30.22,2,0,5,0.00
2013-7-17,90,80,72,76,73,70,97,81,58,30.33,30.19,0,0,1,0.00
2013-7-18,93,83,73,77,74,72,97,76,54,30.21,30.02,1,0,4,0.00
2013-7-19,93,83,74,76,73,71,91,73,51,30.02,29.87,1,0,5,0.00
2013-7-20,90,80,74,77,72,69,88,77,58,29.92,29.80,3,0,9,0.00
2013-7-21,80,76,72,74,71,69,93,85,74,29.94,29.84,1,0,2,0.00
2013-7-22,89,79,70,75,72,68,97,80,59,29.87,29.77,2,0,6,0.00
2013-7-23,89,80,74,76,72,67,90,76,56,29.90,29.74,1,0,6,0.00
2013-7-24,78,73,64,67,60,55,86,64,47,30.04,29.91,2,0,5,0.00
2013-7-25,80,74,68,61,60,57,79,62,47,30.13,30.06,2,0,4,0.00
2013-7-26,73,70,65,70,65,60,95,85,75,30.08,29.96,1,0,3,0.21
2013-7-27,74,68,58,68,59,52,97,76,50,30.02,29.96,3,0,10,0.01
2013-7-28,78,66,52,59,55,50,97,70,43,30.07,30.01,1,0,9,0.00
2013-7-29,74,67,57,67,62,55,97,84,66,30.17,30.07,1,0,2,0.00
2013-7-30,74,70,65,71,68,63,97,93,79,30.12,30.00,2,0,3,0.90
2013-7-31,80,73,67,74,70,65,98,90,73,30.05,29.99,3,0,8,0.00
2013-8-1,84,73,63,69,64,57,98,76,40,30.09,30.00,1,0,9,0.00
2013-8-2,80,72,64,72,68,63,97,89,70,30.00,29.91,1,0,3,0.18
2013-8-3,83,74,68,73,70,65,98,87,66,30.12,29.93,1,0,5,0.00
2013-8-4,78,71,63,65,63,60,97,76,54,30.18,30.08,2,0,3,0.00
2013-8-5,73,70,66,69,66,62,94,85,79,30.10,29.89,2,0,6,0.00
2013-8-6,85,77,70,73,71,69,98,84,62,29.93,29.85,2,0,5,0.00
2013-8-7,87,78,72,73,71,68,96,80,56,29.92,29.82,2,0,6,0.00
2013-8-8,78,74,72,75,72,70,97,93,88,29.97,29.89,2,0,4,0.06
2013-8-9,80,74,68,73,70,68,98,87,68,30.07,29.95,1,0,2,0.00
2013-8-10,83,75,67,71,66,61,96,76,48,30.14,30.07,2,0,5,0.01
2013-8-11,85,74,59,64,61,58,97,68,41,30.15,30.04,1,0,3,0.00
2013-8-12,77,72,68,74,69,63,96,89,81,30.07,29.91,1,0,3,0.07
2013-8-13,78,71,65,69,64,56,97,81,59,30.13,29.96,2,0,5,0.01
2013-8-14,73,63,53,56,53,50,96,72,46,30.22,30.14,2,0,5,0.00
2013-8-15,74,64,54,57,54,52,97,74,48,30.18,30.08,2,0,3,0.00
2013-8-16,75,65,54,59,56,53,97,75,49,30.16,30.11,1,0,6,0.00
2013-8-17,79,68,57,63,60,55,96,75,53,30.19,30.10,1,0,4,0.00
2013-8-18,81,71,62,65,63,60,94,78,54,30.19,30.08,1,0,3,0.00
2013-8-19,84,73,61,68,64,59,97,76,50,30.14,30.03,3,0,5,0.00
2013-8-20,86,74,63,69,66,61,97,76,51,30.12,30.03,2,0,3,0.00
2013-8-21,88,77,65,70,67,64,97,74,48,30.13,30.03,1,0,6,0.00
2013-8-22,88,78,68,73,70,66,96,78,55,30.11,30.01,4,0,4,0.00
2013-8-23,88,79,72,74,71,68,96,79,55,30.10,30.03,0,0,4,0.00
2013-8-24,90,78,66,72,68,64,97,74,47,30.20,30.10,1,0,5,0.00
2013-8-25,90,78,64,72,67,62,97,73,40,30.27,30.16,2,0,4,0.00
2013-8-26,92,82,73,76,72,69,96,75,48,30.21,30.06,3,0,5,0.00
2013-8-27,93,82,72,75,71,67,93,71,42,30.09,29.98,5,0,9,0.00
2013-8-28,93,81,70,71,68,65,94,68,40,30.04,29.97,2,0,6,0.00
2013-8-29,94,82,71,75,71,69,94,71,48,30.04,29.94,2,0,5,0.00
2013-8-30,97,84,72,76,72,69,93,69,41,29.96,29.82,3,0,8,0.00
2013-8-31,98,86,76,75,73,70,89,66,41,29.84,29.70,3,0,5,0.00
2013-9-1,89,82,74,75,72,70,93,75,59,29.84,29.76,3,0,6,0.00
2013-9-2,83,76,67,71,64,62,86,68,51,29.96,29.84,5,0,7,0.00
2013-9-3,81,69,58,61,59,56,94,72,44,30.09,29.96,2,0,5,0.00
2013-9-4,85,70,57,63,59,55,96,71,39,30.17,30.08,2,0,4,0.00
2013-9-5,86,72,59,66,61,57,96,72,43,30.21,30.13,2,0,3,0.00
2013-9-6,87,75,63,67,64,61,96,72,48,30.19,30.03,2,0,6,0.00
2013-9-7,92,77,62,70,65,60,97,70,37,30.06,29.91,1,0,5,0.00
2013-9-8,83,76,71,75,71,66,98,83,69,30.02,29.90,2,0,3,0.25
2013-9-9,96,82,72,75,71,68,97,73,41,29.97,29.89,2,0,4,0.00
2013-9-10,96,82,70,73,68,64,96,67,35,30.08,29.97,1,0,6,0.00
2013-9-11,94,81,68,71,68,64,94,67,38,30.13,30.02,1,0,7,0.00
2013-9-12,84,77,66,70,65,52,93,67,47,30.08,29.98,1,0,5,0.07
2013-9-13,74,65,56,57,52,47,86,64,45,30.14,30.07,2,0,4,0.00
2013-9-14,74,61,49,51,47,42,93,63,31,30.18,30.05,2,0,4,0.00
2013-9-15,80,66,52,68,56,48,92,74,48,30.12,30.00,2,0,4,0.03
2013-9-16,71,65,59,66,59,55,92,81,63,30.28,30.11,3,0,4,0.00
2013-9-17,72,64,58,66,60,54,96,85,74,30.25,30.08,0,0,3,0.02
2013-9-18,87,73,65,73,68,64,98,84,58,30.09,29.95,2,0,5,0.18
2013-9-19,89,80,72,74,71,69,92,77,56,29.99,29.85,2,0,5,0.00
2013-9-20,78,68,60,71,66,57,98,93,76,29.93,29.88,1,0,5,0.51
2013-9-21,70,60,52,56,52,50,97,79,52,29.99,29.92,1,0,6,0.00
2013-9-22,73,60,46,55,51,45,98,76,45,30.04,29.94,2,0,3,0.00
2013-9-23,75,62,48,55,52,47,98,72,45,30.05,29.93,7,0,7,0.00
2013-9-24,81,66,52,67,59,50,96,78,55,29.97,29.79,3,0,5,0.00
2013-9-25,80,71,64,66,65,61,95,82,61,29.88,29.79,2,0,3,0.00
2013-9-26,83,70,58,67,62,57,98,78,50,30.02,29.87,2,0,5,0.00
2013-9-27,82,70,58,66,60,56,98,74,47,30.11,30.00,3,0,5,0.00
2013-9-28,83,71,59,68,62,56,92,75,55,30.05,29.95,5,0,8,0.01
2013-9-29,73,64,54,68,55,50,93,75,45,30.08,29.98,2,0,8,0.00
2013-9-30,77,62,48,65,57,47,98,84,60,30.01,29.89,2,0,5,0.00
2013-10-1,81,70,62,70,66,61,97,87,68,30.03,29.95,2,0,5,0.00
2013-10-2,82,72,66,71,68,65,98,87,66,30.06,29.96,2,0,7,0.00
2013-10-3,84,75,67,73,69,65,94,80,63,29.98,29.87,4,0,10,0.00
2013-10-4,86,76,67,71,69,65,97,80,59,29.98,29.89,4,0,7,0.00
2013-10-5,75,69,54,71,66,53,97,90,72,29.95,29.85,1,0,7,0.15
2013-10-6,56,53,48,53,45,41,95,77,57,29.94,29.87,4,0,11,0.00
2013-10-7,68,56,49,52,48,46,91,76,49,30.16,29.94,1,0,8,0.00
2013-10-8,74,58,44,54,48,43,98,75,43,30.23,30.14,2,0,6,0.00
2013-10-9,73,58,44,56,50,42,98,77,49,30.21,30.10,3,0,6,0.00
2013-10-10,77,63,51,63,56,50,98,81,56,30.17,30.02,2,0,6,0.00
2013-10-11,78,65,53,63,57,52,97,78,49,30.05,29.91,7,0,8,0.00
2013-10-12,75,65,53,65,58,49,97,81,58,30.21,29.95,2,0,6,0.13
2013-10-13,71,58,46,49,44,38,93,64,30,30.40,30.22,2,0,4,0.00
2013-10-14,66,56,44,55,45,40,88,69,50,30.36,30.07,1,0,4,0.00
2013-10-15,66,62,56,65,59,51,98,90,79,30.08,29.91,2,0,5,0.28
2013-10-16,58,51,45,51,44,42,93,78,62,30.08,29.99,2,0,9,0.00
2013-10-17,63,52,44,49,44,41,96,79,45,30.03,29.94,2,0,10,0.03
2013-10-18,59,50,42,46,42,37,95,74,48,30.09,29.99,3,0,10,0.04
2013-10-19,56,46,40,41,39,36,96,80,46,30.07,29.98,3,0,6,0.19
2013-10-20,70,54,39,47,42,37,95,66,38,30.00,29.88,7,0,7,0.00
2013-10-21,55,49,36,46,41,34,89,75,54,30.10,29.95,2,0,12,0.00
2013-10-22,60,45,33,49,38,31,95,80,55,30.10,29.83,10,1,11,0.01
2013-10-23,48,42,37,37,34,28,88,72,50,30.17,30.03,2,0,9,0.00
2013-10-24,47,40,30,37,30,26,93,70,46,30.46,30.16,3,0,15,0.00
2013-10-25,54,38,26,32,28,24,93,71,38,30.57,30.26,4,0,6,0.00
2013-10-26,64,50,38,45,36,30,75,60,41,30.25,30.04,3,0,10,0.00
2013-10-27,59,43,29,34,31,27,94,68,32,30.17,30.05,2,0,5,0.00
2013-10-28,67,48,31,48,39,29,96,76,41,30.27,30.09,1,0,4,0.00
2013-10-29,58,50,43,57,48,40,100,92,75,30.27,30.08,2,0,5,0.20
2013-10-30,72,64,57,68,62,57,99,92,79,30.08,29.84,4,0,7,0.02
2013-10-31,66,60,48,64,59,46,98,95,89,29.82,29.40,7,0,11,0.72
2013-11-1,62,52,47,47,45,42,96,79,53,29.89,29.66,5,0,11,0.00
2013-11-2,54,47,37,43,40,34,91,77,54,30.22,29.88,5,0,16,0.00
2013-11-3,57,44,30,40,35,29,97,72,45,30.35,30.18,4,0,8,0.00
2013-11-4,60,52,47,47,42,37,74,69,58,30.26,30.13,7,1,10,0.00
2013-11-5,59,55,51,54,51,46,97,86,73,30.28,30.02,4,0,7,0.11
2013-11-6,58,49,38,57,46,35,97,91,81,30.30,29.93,5,0,11,0.09
2013-11-7,55,41,30,40,35,29,97,80,53,30.43,30.31,2,0,8,0.00
2013-11-8,58,44,28,37,32,26,96,68,34,30.41,30.12,6,1,8,0.00
2013-11-9,66,54,45,43,40,36,82,61,38,30.26,30.09,4,0,8,0.00
2013-11-10,54,45,36,40,34,29,89,68,39,30.46,30.26,4,0,5,0.00
2013-11-11,66,46,33,49,39,31,91,78,51,30.53,30.15,3,0,13,0.04
2013-11-12,35,29,22,30,20,17,90,70,47,30.82,30.54,5,1,10,0.00
2013-11-13,47,32,18,22,18,14,92,61,27,30.76,30.36,4,0,7,0.01
2013-11-14,59,44,28,27,21,17,72,43,21,30.36,30.08,4,1,9,0.00
2013-11-15,58,50,46,43,34,26,85,56,40,30.10,29.96,5,0,10,0.00
2013-11-16,65,58,47,61,53,43,93,85,78,29.96,29.64,11,2,12,0.06
2013-11-17,78,66,50,65,49,23,97,61,21,29.99,29.41,16,3,21,0.09
2013-11-18,56,45,33,40,33,27,92,68,34,30.34,30.00,6,1,14,0.00
2013-11-19,48,37,29,31,28,27,94,73,50,30.40,30.26,4,0,6,0.00
2013-11-20,49,40,33,43,35,28,91,81,71,30.26,30.07,4,1,9,0.16
2013-11-21,50,49,47,50,47,43,98,93,80,30.22,30.11,2,0,5,0.27
2013-11-22,50,39,34,50,36,31,98,90,83,30.57,30.22,8,2,12,0.00
2013-11-23,34,28,19,31,19,10,89,69,43,30.79,30.56,8,2,15,0.01
2013-11-24,30,23,15,14,11,6,85,62,37,30.82,30.51,4,0,6,0.00
2013-11-25,36,32,27,24,19,15,66,58,48,30.50,30.20,4,1,8,0.00
2013-11-26,39,33,24,29,23,12,82,67,55,30.31,30.13,9,2,17,0.00
2013-11-27,30,22,18,14,11,9,84,63,43,30.43,30.31,12,1,15,0.00
2013-11-28,47,31,17,26,20,13,86,65,43,30.56,30.32,5,1,10,0.00
2013-11-29,46,32,20,29,24,17,90,72,49,30.64,30.42,5,0,8,0.00
2013-11-30,61,41,26,40,32,24,93,75,46,30.42,30.12,4,0,9,0.00
2013-12-1,58,42,29,42,36,28,96,80,54,30.17,29.93,2,0,4,0.00
2013-12-2,58,44,36,47,39,34,94,84,65,29.93,29.71,4,0,6,0.00
2013-12-3,61,50,40,52,47,38,98,90,71,29.73,29.65,4,1,10,0.00
2013-12-4,67,54,41,56,49,34,98,85,64,29.89,29.54,9,1,13,0.00
2013-12-5,40,28,22,34,21,15,89,76,64,30.35,29.90,10,2,17,0.00
2013-12-6,23,20,15,19,12,5,86,71,59,30.66,30.34,6,1,12,0.00
2013-12-7,23,18,11,12,7,5,75,65,53,30.79,30.53,5,1,8,0.00
2013-12-8,28,23,20,25,20,11,93,87,63,30.52,30.09,3,0,9,0.00
2013-12-9,28,24,21,26,17,13,90,73,65,30.39,30.16,6,1,12,0.00
2013-12-10,37,24,15,19,15,10,86,69,47,30.39,30.30,6,1,10,0.01
2013-12-11,32,22,13,23,13,2,92,71,52,30.73,30.36,7,1,17,0.00
2013-12-12,39,23,8,18,11,4,86,63,36,30.72,30.33,6,1,10,0.00
2013-12-13,33,28,18,32,24,15,95,86,66,30.32,30.00,5,0,7,0.00
2013-12-14,34,31,27,33,29,24,97,93,89,30.20,29.89,9,2,16,0.00
2013-12-15,38,29,24,31,25,20,93,84,72,30.26,30.08,7,1,11,0.00
2013-12-16,40,32,26,31,28,24,94,85,70,30.19,30.04,3,0,10,0.00
2013-12-17,42,33,25,31,26,21,93,76,56,30.34,30.17,5,1,10,0.00
2013-12-18,54,38,20,39,27,18,92,66,38,30.32,29.98,10,2,16,0.00
2013-12-19,60,52,46,51,45,39,84,76,67,29.98,29.81,8,2,13,0.00
2013-12-20,69,53,36,59,48,34,91,84,69,29.89,29.71,9,2,15,0.00
2013-12-21,36,33,32,34,32,31,95,94,92,29.89,29.61,4,1,10,0.00
2013-12-22,34,32,27,33,30,23,96,91,82,30.33,29.70,7,1,15,0.00
2013-12-23,27,21,12,23,16,6,92,79,70,30.66,30.34,6,2,11,0.00
2013-12-24,24,16,6,12,5,-1,81,64,41,30.70,30.42,7,2,13,0.00
2013-12-25,37,31,23,30,24,13,86,76,66,30.43,30.29,5,1,9,0.00
2013-12-26,51,36,22,31,25,21,95,69,33,30.43,30.29,4,1,9,0.00
2013-12-27,57,36,23,33,27,21,93,71,36,30.43,30.29,3,0,8,0.00
2013-12-28,60,41,25,33,28,23,99,65,30,30.30,29.95,5,1,10,0.00
2013-12-29,40,29,17,32,22,9,84,76,66,30.33,29.90,10,2,16,0.00
2013-12-30,31,20,11,15,6,2,71,55,38,30.43,30.29,4,1,10,0.00
2013-12-31,43,34,22,25,20,14,81,58,46,30.47,30.21,4,1,8,0.00
2014-1-1,49,35,24,31,26,21,91,71,43,30.21,30.04,7,1,11,0.00
2014-1-2,24,17,8,22,12,4,91,78,65,30.56,30.12,8,2,15,0.00